Regional Weather Roundup
Issued by NWS

Home | Current Version | Previous Version | Text Only | Print | Product List | Glossary Off
Versions: 1 2 3 4 5 6 7 8 9 10 11 12 13 14 15 16 17 18 19 20 21 22 23 24 25 26 27 28 29 30 31 32 33 34 35 36 37 38 39 40 41 42 43 44 45 46 47 48 49 50

000
ASUS43 KLMK 280810
RWRKY
KENTUCKY REGIONAL WEATHER ROUNDUP
NATIONAL WEATHER SERVICE LOUISVILLE KY
400 AM EDT WED SEP 28 2016

NOTE "FAIR" INDICATES FEW OR NO CLOUDS BELOW 12,000 FEET
WITH NO SIGNIFICANT WEATHER AND/OR OBSTRUCTIONS TO VISIBILITY.

KYZ001>023-026-027-061>063-070>075-280900-
WESTERN AND SOUTH CENTRAL KENTUCKY

CITY           SKY/WX    TMP DP  RH WIND       PRES   REMARKS
PADUCAH        CLEAR     60  49  66 SW7       29.87F
HENDERSON      CLEAR     59  48  67 SW9       29.83F
OWENSBORO      NOT AVBL
HOPKINSVILLE   CLEAR     57  49  73 S3        29.90F
BOWLING GREEN  CLOUDY    53  50  89 CALM      29.91F
GLASGOW        CLEAR     50  50 100 CALM      29.92S
$$

KYZ024-025-028>034-038-045-046-053-280900-
NORTH CENTRAL KENTUCKY

CITY           SKY/WX    TMP DP  RH WIND       PRES   REMARKS
LOUISVILLE/SDF MOCLDY    65  45  48 S9        29.85F
LOUISVILLE/LOU PTCLDY    60  48  64 S6        29.86F
FORT KNOX      CLEAR     55  48  76 S6        29.86S
$$

KYZ035>037-039>044-047>052-055>060-089>105-280900-
NORTHEAST KENTUCKY

CITY           SKY/WX    TMP DP  RH WIND       PRES   REMARKS
LEXINGTON      CLEAR     56  44  64 S8        29.90F
COVINGTON      MOCLDY    57  48  72 S9        29.85F
FRANKFORT      CLEAR     56  45  66 S6        29.88F
$$

KYZ054-064>069-076>088-106>120-280900-
SOUTHEAST KENTUCKY

CITY           SKY/WX    TMP DP  RH WIND       PRES   REMARKS
JACKSON        CLEAR     52  46  80 CALM      29.93F
LONDON         CLEAR     47  44  90 CALM      29.94F
SOMERSET       CLEAR     46  46 100 CALM      29.95F
MIDDLESBORO    PTCLDY    47  47  97 CALM      29.97S
MONTICELLO     SUNNY     46  45  96 W12       29.96F
$$




USA.gov is the U.S. government's official web portal to all federal, state and local government web resources and services.